Ord, NE

10:47 PM CDT on March 23, 2017 (GMT -0500)
Sharp

Weather History for KODX - August, 2014

Change the Weather History Date:

Friday, August 29, 2014

  Actual Average Record
Temperature  
Mean Temperature 70 °F 71 °F  
Max Temperature 80 °F 84 °F 102 °F (2012)
Min Temperature 59 °F 57 °F 48 °F (2006)
Degree Days  
Heating Degree Days 0 1  
Month to date heating degree days 0 2  
Since 1 June heating degree days 51 44  
Since 1 July heating degree days 19 7  
Cooling Degree Days 5 6  
Month to date cooling degree days 227 246  
Year to date cooling degree days 627 746  
Since 1 June cooling degree days 558 705  
Growing Degree Days 20 (Base 50)    
Moisture  
Dew Point 62 °F    
Average Humidity 79    
Maximum Humidity 100    
Minimum Humidity 58    
Precipitation  
Precipitation 0.02 in 0.08 in 2.45 in (1921)
Month to date precipitation 5.27 2.99  
Year to date precipitation 17.64 18.74  
Sea Level Pressure  
Sea Level Pressure 29.83 in    
Wind  
Wind Speed 7 mph (NW)    
Max Wind Speed 18 mph    
Max Gust Speed 23 mph    
Visibility 10 miles    
Events Rain    
T = Trace of Precipitation, MM = Missing Value Source: NWS Daily Summary

Daily Weather History Graph

Daily Weather History Graph

Search for Another Location

Airport or City:

Trip Planner

Search our weather history database for the weather conditions in past years. The results will help you decide how hot, cold, wet, or windy it might be!

Date:

Astronomy

Aug. 29, 2014 Rise Set
Actual Time 6:58 AM CDT 8:13 PM CDT
Civil Twilight 6:30 AM CDT 8:42 PM CDT
Nautical Twilight 5:55 AM CDT 9:16 PM CDT
Astronomical Twilight 5:19 AM CDT 9:52 PM CDT
Moon 10:53 AM CDT (8/29) 10:08 PM CDT (8/29)
Length of Visible Light 14h 12m
Length of Day
13h 15m
Waxing Crescent, 15% of the Moon is Illuminated
Aug 29
Waxing Crescent
Sep 2
First Quarter
Sep 8
Full
Sep 15
Last Quarter
Sep 24
New

Hourly Weather History & Observations

Time (CDT) Temp. Heat Index Dew Point Humidity Pressure Visibility Wind Dir Wind Speed Gust Speed Precip Events Conditions
12:53 AM 63.0 °F - 62.1 °F 97% 29.82 in 10.0 mi WNW 6.9 mph - N/A   Partly Cloudy
1:53 AM 63.0 °F - 61.0 °F 93% 29.81 in 10.0 mi WSW 3.5 mph - N/A   Clear
2:53 AM 64.0 °F - 62.1 °F 93% 29.81 in 10.0 mi NW 6.9 mph - N/A   Clear
3:04 AM 64.0 °F - 63.0 °F 96% 29.83 in 10.0 mi NW 8.1 mph - N/A   Partly Cloudy
3:53 AM 63.0 °F - 62.1 °F 97% 29.81 in 10.0 mi NW 8.1 mph - N/A   Clear
4:53 AM 62.1 °F - 60.1 °F 93% 29.79 in 10.0 mi NW 8.1 mph - N/A   Clear
5:53 AM 60.1 °F - 59.0 °F 96% 29.79 in 10.0 mi NW 3.5 mph - N/A   Clear
6:53 AM 60.1 °F - 57.9 °F 93% 29.81 in 10.0 mi Calm Calm - N/A   Clear
7:53 AM 61.0 °F - 57.9 °F 90% 29.82 in 10.0 mi Calm Calm - N/A   Clear
8:53 AM 64.9 °F - 61.0 °F 87% 29.82 in 10.0 mi NW 6.9 mph - N/A   Clear
9:53 AM 69.8 °F - 62.6 °F 78% 29.83 in 10.0 mi NW 9.2 mph - N/A   Clear
10:53 AM 73.9 °F - 64.9 °F 73% 29.83 in 10.0 mi North 6.9 mph - N/A   Scattered Clouds
11:53 AM 75.0 °F - 64.9 °F 71% 29.83 in 10.0 mi NNW 6.9 mph - N/A   Mostly Cloudy
12:39 PM 75.9 °F - 64.9 °F 69% 29.83 in 10.0 mi Calm Calm - N/A   Mostly Cloudy
12:46 PM 77.0 °F - 66.2 °F 69% 29.83 in 10.0 mi North - - N/A   Mostly Cloudy
12:53 PM 77.0 °F - 64.9 °F 66% 29.81 in 10.0 mi NW 6.9 mph - N/A   Mostly Cloudy
1:53 PM 77.0 °F - 64.0 °F 64% 29.80 in 10.0 mi NNW 12.7 mph - N/A   Mostly Cloudy
2:40 PM 75.0 °F - 66.9 °F 76% 29.83 in 10.0 mi ENE 13.8 mph - N/A   Scattered Clouds
2:53 PM 75.9 °F - 66.0 °F 71% 29.81 in 10.0 mi ENE 8.1 mph 16.1 mph N/A   Partly Cloudy
3:53 PM 79.0 °F - 66.0 °F 64% 29.80 in 10.0 mi NNE 9.2 mph - N/A   Clear
4:53 PM 80.1 °F 81.7 °F 64.0 °F 58% 29.79 in 10.0 mi NW 10.4 mph - N/A   Clear
5:53 PM 79.0 °F - 63.0 °F 58% 29.79 in 10.0 mi NNW 12.7 mph - N/A   Clear
6:53 PM 78.1 °F - 63.0 °F 60% 29.81 in 10.0 mi North 6.9 mph - N/A   Clear
7:53 PM 73.0 °F - 64.0 °F 73% 29.84 in 10.0 mi North 4.6 mph - N/A   Partly Cloudy
8:43 PM 69.1 °F - 59.0 °F 70% 29.87 in 10.0 mi WSW 9.2 mph - 0.00 in Rain Light Rain
8:53 PM 69.1 °F - 59.0 °F 70% 29.87 in 10.0 mi WNW 5.8 mph - 0.00 in Rain Light Rain
9:53 PM 64.4 °F - 62.6 °F 94% 29.93 in 10.0 mi WNW 4.6 mph - N/A Rain Light Rain
10:53 PM 64.9 °F - 61.0 °F 87% 29.92 in 10.0 mi North 4.6 mph - 0.00 in   Clear
11:53 PM 63.0 °F - 59.0 °F 87% 29.91 in 10.0 mi WNW 6.9 mph - N/A   Clear